Regional Weather Roundup
Issued by NWS

Home | Current Version | Previous Version | Graphics & Text | Print | Product List | Glossary On
Versions: 1 2 3 4 5 6 7 8 9 10 11 12 13 14 15 16 17 18 19 20 21 22 23 24 25 26 27 28 29 30 31 32 33 34 35 36 37 38 39 40 41 42 43 44 45 46 47 48 49 50
000
ASUS43 KLSX 230559
RWRMO

WEATHER SUMMARY FOR MISSOURI
NATIONAL WEATHER SERVICE SPRINGFIELD MO
100 AM CDT THU OCT 23 2014

NOTE: "FAIR" INDICATES FEW OR NO CLOUDS BELOW 12,000 FEET WITH NO
       SIGNIFICANT WEATHER AND/OR OBSTRUCTIONS TO VISIBILITY.
       CURRENT SKY AND/OR WEATHER CONDITIONS ARE NOT AVAILABLE FOR
       CHILLICOTHE AND FARMINGTON.

MOZ001>031-035>038-043-044-053-054-230700-
...NORTHERN AND WESTERN MISSOURI...

CITY           SKY/WX    TMP DP  RH WIND       PRES   REMARKS
KANSAS CTY INT CLOUDY    61  51  70 S15       30.09F
6HR MIN TEMP:  59; 6HR MAX TEMP:  64;

KANSAS C DTWN  CLOUDY    63  50  62 S7        30.10F
6HR MIN TEMP:  62; 6HR MAX TEMP:  69;

LEE`S SUMMIT   MOCLDY    59  48  67 S10       30.12S
6HR MIN TEMP:  59; 6HR MAX TEMP:  66;

ST JOSEPH      CLOUDY    61  50  67 S7        30.08F
6HR MIN TEMP:  60; 6HR MAX TEMP:  66;

KIRKSVILLE     CLEAR     47  43  86 S8        30.16F
6HR MIN TEMP:  47; 6HR MAX TEMP:  52;


$$
MOZ066>068-077>081-088>096-101>105-230700-
...SOUTHWEST MISSOURI...

CITY           SKY/WX    TMP DP  RH WIND       PRES   REMARKS
SPRINGFIELD    CLEAR     52  46  80 SE10      30.16S
6HR MIN TEMP:  52; 6HR MAX TEMP:  59;

JOPLIN         MOCLDY    57  51  80 SE7       30.14S
6HR MIN TEMP:  57; 6HR MAX TEMP:  66;


$$
MOZ032>034-039>042-045>050-055>058-069>072-230700-
...CENTRAL MISSOURI...

CITY           SKY/WX    TMP DP  RH WIND       PRES   REMARKS
COLUMBIA       CLEAR     49  41  74 SE8       30.17F
6HR MIN TEMP:  48; 6HR MAX TEMP:  58;

JEFFERSON CITY CLEAR     45  40  82 SE6       30.18S
6HR MIN TEMP:  45; 6HR MAX TEMP:  58;

ROLLA          CLEAR     45  39  79 SE8       30.18S
6HR MIN TEMP:  44; 6HR MAX TEMP:  55; 6HR PCP: TRACE;

SEDALIA        PTCLDY    52  45  77 S7        30.16S
6HR MIN TEMP:  52; 6HR MAX TEMP:  60;

OSAGE BEACH    CLEAR     50  41  71 S6        30.17S

$$
MOZ051-052-059>065-230700-
...EAST CENTRAL MISSOURI...

CITY           SKY/WX    TMP DP  RH WIND       PRES   REMARKS
ST LOUIS INTL  PTCLDY    47  40  76 E5        30.22F
6HR MIN TEMP:  47; 6HR MAX TEMP:  58;

SPIRIT OF STL  CLEAR     39  38  96 CALM      30.21S
6HR MIN TEMP:  39; 6HR MAX TEMP:  50;

ST CHARLES     CLEAR     44  40  85 E6        30.22S
6HR MIN TEMP:  42; 6HR MAX TEMP:  54;


$$
MOZ072>076-082>087-097>100-106>115-230700-
...SOUTH CENTRAL AND SOUTHEAST MISSOURI...

CITY           SKY/WX    TMP DP  RH WIND       PRES   REMARKS
CAPE GIRARDEAU CLEAR     40  39  97 E3        30.22F
6HR MIN TEMP:  39; 6HR MAX TEMP:  53;

FARMINGTON     CLEAR     39  39 100 CALM      30.23F
6HR MIN TEMP:  37; 6HR MAX TEMP:  52;

POPLAR BLUFF   CLEAR     42  39  89 CALM      30.21S
6HR MIN TEMP:  42; 6HR MAX TEMP:  54;

WEST PLAINS    PTCLDY    42  38  85 CALM      30.21F
6HR MIN TEMP:  40; 6HR MAX TEMP:  55;


$$



USA.gov is the U.S. government's official web portal to all federal, state and local government web resources and services.